Flag for Israel Weather past 2 weeks in Holon, Israel

Now
63 °F

Passing clouds.


Feels Like: 63 °F
Forecast: 56 / 65 °F
Wind: 7 mph from West

Location: Dov Airport

Current Time: Mar 2, 2015 at 10:14:19 PM

Latest Report: Mar 2, 2015 at 8:50 PM


Visibility: N/A

Pressure: 30.12 "Hg

Humidity: 59%

Dew point: 48 °F

Location of HolonLocation

Historic Weather in Holon — Graph

°F

Holon temperature yesterday

Maximum temperature yesterday: 64 °F (at 11:50 AM)
Minimum temperature yesterday: 55 °F (at 5:50 AM)
Average temperature yesterday: 62 °F

Past Weeks' High & Low Weather Summary

 TemperatureHumidityPressure
High82 °F (Feb 27, 11:50 AM)94% (Feb 16, 4:00 AM)30.18 "Hg (Feb 16, 4:00 AM)
Low46 °F (Feb 20, 8:50 AM)17% (Feb 27, 11:50 AM)29.65 "Hg (Feb 20, 6:50 AM)
Average60 °F62%29.98 "Hg
* Reported Feb 15 8:50 PM — Mar 2 8:50 PM, Holon, Weather by CustomWeather, © 2015

Note: Actual official high and low records may vary slightly from our data, if they occured in-between our weather recording intervals... More about our weather records

Advertising

Holon weather history for previous 24 hours

 ConditionsComfort  
Time TempWeatherWind HumidityBarometerVisibility
8:50 PM
Mon, Mar 2
63 °FPassing clouds.7 mph59%30.12 "HgN/A
7:50 PM63 °FPassing clouds.8 mph59%30.09 "HgN/A
6:50 PM63 °FPassing clouds.8 mph64%30.09 "HgN/A
5:50 PM63 °FPassing clouds.10 mph64%30.07 "HgN/A
4:50 PM63 °FBroken clouds.14 mph68%30.07 "HgN/A
3:50 PM64 °FPartly sunny.14 mph64%30.07 "HgN/A
2:50 PM64 °FScattered clouds.13 mph60%30.07 "HgN/A
1:50 PM66 °FScattered clouds.13 mph60%30.07 "HgN/A
12:50 PM64 °FScattered clouds.12 mph60%30.07 "HgN/A
11:50 AM64 °FScattered clouds.10 mph60%30.09 "HgN/A
10:50 AM64 °FScattered clouds.8 mph68%30.09 "HgN/A
9:50 AM64 °FScattered clouds.7 mph64%30.09 "HgN/A
8:50 AM63 °FScattered clouds.3 mph68%30.09 "HgN/A
7:50 AM59 °FScattered clouds.6 mph77%30.09 "HgN/A
6:50 AM55 °FPartly sunny.5 mph77%30.07 "HgN/A
5:50 AM55 °FPassing clouds.5 mph77%30.07 "HgN/A
10:50 PM
Sun, Mar 1
61 °FPassing clouds.10 mph72%30.07 "HgN/A
Weather by CustomWeather, © 2015

See weather overviewHow to use our weather pages